Oak Ridge, TN

6:39 PM EST on November 19, 2019 (GMT -0500)
Oak Ridge

Weather History for KOQT - September, 2019

Change the Weather History Date:

Thursday, September 26, 2019

  Actual Average (KTYS) Record (KTYS)
Temperature  
Mean Temperature 78 °F -  
Max Temperature 89 °F 77 °F 89 °F (1933)
Min Temperature 68 °F 58 °F 41 °F (2001)
Cooling Degree Days 13    
Growing Degree Days 28 (Base 50)    
Moisture  
Dew Point 63 °F    
Average Humidity 65    
Maximum Humidity 87    
Minimum Humidity 45    
Precipitation  
Precipitation 0.02 in - - ()
Sea Level Pressure  
Sea Level Pressure 29.91 in    
Wind  
Wind Speed 1 mph ()    
Max Wind Speed 5 mph    
Max Gust Speed -    
Visibility 10.0 miles    
Events      
Averages and records for this station are not official NWS values.
T = Trace of Precipitation, MM = Missing Value Source: Averaged Metar Reports

Daily Weather History Graph

Daily Weather History Graph

Search for Another Location

Airport or City:

Astronomy

Sep. 26, 2019 Rise Set
Actual Time 7:27 AM EDT 7:28 PM EDT
Civil Twilight 7:02 AM EDT 7:53 PM EDT
Nautical Twilight 6:32 AM EDT 8:23 PM EDT
Astronomical Twilight 6:02 AM EDT 8:53 PM EDT
Moon 4:41 AM EDT (9/26) 6:34 PM EDT (9/26)
Length of Visible Light 12h 51m
Length of Day
12h 00m
Waning Crescent, 7% of the Moon is Illuminated
Sep 26
Waning Crescent
Sep 28
New
Oct 5
First Quarter
Oct 13
Full
Oct 21
Last Quarter

Hourly Weather History & Observations

Time (EDT) Temp. Heat Index Dew Point Humidity Pressure Visibility Wind Dir Wind Speed Gust Speed Precip Events Conditions
12:53 AM 72.0 °F - 57.9 °F 61% 29.88 in 10.0 mi Calm Calm - N/A   Partly Cloudy
1:53 AM 70.0 °F - 57.9 °F 65% 29.87 in 10.0 mi Calm Calm - N/A   Partly Cloudy
2:53 AM 69.1 °F - 57.9 °F 68% 29.86 in 10.0 mi Calm Calm - N/A   Scattered Clouds
3:53 AM 70.0 °F - 57.9 °F 65% 29.86 in 10.0 mi Calm Calm - N/A   Mostly Cloudy
4:53 AM 70.0 °F - 59.0 °F 68% 29.87 in 10.0 mi Calm Calm - N/A   Mostly Cloudy
5:53 AM 68.0 °F - 59.0 °F 73% 29.88 in 10.0 mi Calm Calm - N/A   Mostly Cloudy
6:53 AM 68.0 °F - 59.0 °F 73% 29.90 in 10.0 mi Calm Calm - N/A   Scattered Clouds
7:53 AM 69.1 °F - 60.1 °F 73% 29.92 in 10.0 mi Calm Calm - N/A   Mostly Cloudy
8:53 AM 68.0 °F - 64.0 °F 87% 29.94 in 10.0 mi Calm Calm - 0.02 in   Overcast
9:53 AM 71.1 °F - 64.9 °F 81% 29.95 in 10.0 mi Calm Calm - N/A   Overcast
10:53 AM 75.9 °F - 66.9 °F 74% 29.94 in 10.0 mi Calm Calm - N/A   Partly Cloudy
11:53 AM 82.9 °F 85.0 °F 66.0 °F 56% 29.93 in 10.0 mi Variable 4.6 mph - N/A   Partly Cloudy
12:53 PM 84.9 °F 86.6 °F 64.9 °F 51% 29.91 in 10.0 mi Variable 4.6 mph - N/A   Partly Cloudy
1:53 PM 84.9 °F 86.6 °F 64.9 °F 51% 29.91 in 10.0 mi Variable 4.6 mph - N/A   Mostly Cloudy
2:53 PM 86.0 °F 87.6 °F 64.9 °F 49% 29.88 in 10.0 mi Variable 3.5 mph - N/A   Scattered Clouds
3:53 PM 88.0 °F 89.3 °F 64.0 °F 45% 29.87 in 10.0 mi Variable 3.5 mph - N/A   Mostly Cloudy
4:53 PM 86.0 °F 87.6 °F 64.9 °F 49% 29.87 in 10.0 mi NNW 4.6 mph - N/A   Mostly Cloudy
5:53 PM 82.9 °F 85.0 °F 66.0 °F 56% 29.89 in 10.0 mi Variable 3.5 mph - N/A   Scattered Clouds
6:53 PM 82.0 °F 84.1 °F 66.0 °F 58% 29.91 in 10.0 mi Variable 3.5 mph - N/A   Clear
7:53 PM 79.0 °F - 66.0 °F 64% 29.92 in 10.0 mi North 3.5 mph - N/A   Overcast
8:53 PM 78.1 °F - 66.9 °F 68% 29.94 in 10.0 mi Calm Calm - N/A   Overcast
9:53 PM 77.0 °F - 66.9 °F 71% 29.95 in 10.0 mi Calm Calm - N/A   Overcast
10:53 PM 75.0 °F - 66.9 °F 76% 29.96 in 10.0 mi Calm Calm - N/A   Mostly Cloudy
11:53 PM 73.0 °F - 66.9 °F 81% 29.96 in 10.0 mi Calm Calm - N/A   Clear